KO4APQ Weather Reports


time (UTC)temp
C
wind
direction
speed
KPH
gust
KPH
rain 1hr
cm
rain 24hr
cm
rain mn
cm
humidity
%
barometer
mb
20260504080110 6 176 0.0 0.0 0.00 0.00 0.00 89 1017.7
20260504050427 9 176 0.0 0.0 0.00 0.00 0.00 68 1018.4
20260504045924 9 176 0.0 0.0 0.00 0.00 0.00 70 1018.2
20260504045420 10 176 0.0 1.6 0.00 0.00 0.00 70 1018.2
20260504044916 10 176 0.0 0.0 0.00 0.00 0.00 66 1018.1
20260504044414 9 175 0.0 1.6 0.00 0.00 0.00 66 1017.9
20260504043911 9 175 0.0 0.0 0.00 0.00 0.00 67 1017.9
20260504043408 10 175 0.0 0.0 0.00 0.00 0.00 69 1018.0
20260504042905 10 175 0.0 0.0 0.00 0.00 0.00 66 1018.0
20260504042401 10 175 0.0 0.0 0.00 0.00 0.00 65 1018.1
20260504041858 11 175 0.0 0.0 0.00 0.00 0.00 62 1018.2
20260504041354 11 175 0.0 0.0 0.00 0.00 0.00 58 1018.2
20260504040850 11 175 0.0 0.0 0.00 0.00 0.00 57 1018.2
20260504040348 12 175 0.0 0.0 0.00 0.00 0.00 55 1018.2
20260504035843 12 175 0.0 0.0 0.00 0.00 0.00 54 1018.3
20260504035342 12 173 0.0 1.6 0.00 0.00 0.00 54 1018.3
20260504034838 12 174 1.6 1.6 0.00 0.00 0.00 54 1018.2
20260504034336 12 170 1.6 3.2 0.00 0.00 0.00 54 1018.2
20260504033832 12 203 1.6 3.2 0.00 0.00 0.00 54 1018.4
20260504033331 12 203 0.0 1.6 0.00 0.00 0.00 53 1018.2
20260504032827 12 203 0.0 1.6 0.00 0.00 0.00 53 1018.3
20260504032324 12 202 1.6 3.2 0.00 0.00 0.00 52 1018.3
20260504031821 12 217 1.6 4.8 0.00 0.00 0.00 52 1018.3
20260504031318 13 224 1.6 4.8 0.00 0.00 0.00 52 1018.1
20260504030814 13 196 1.6 3.2 0.00 0.00 0.00 51 1018.1
20260504030312 13 184 1.6 1.6 0.00 0.00 0.00 50 1018.2
20260504025808 13 193 0.0 3.2 0.00 0.00 0.00 50 1018.2
20260504025305 13 225 3.2 3.2 0.00 0.00 0.00 49 1018.1
20260504024801 13 245 3.2 6.4 0.00 0.00 0.00 50 1018.0
20260504024258 13 204 1.6 4.8 0.00 0.00 0.00 51 1017.9
20260504023755 13 186 1.6 4.8 0.00 0.00 0.00 51 1018.0
20260504023251 13 209 3.2 4.8 0.00 0.00 0.00 51 1017.8
20260504022747 13 194 0.0 1.6 0.00 0.00 0.00 51 1017.7
20260504022244 13 197 0.0 0.0 0.00 0.00 0.00 51 1017.8
20260504021741 13 197 0.0 1.6 0.00 0.00 0.00 51 1017.8
20260504021238 13 197 0.0 1.6 0.00 0.00 0.00 49 1017.7
20260504020735 14 198 0.0 1.6 0.00 0.00 0.00 48 1017.6
20260504020231 15 288 0.0 0.0 0.00 0.00 0.00 47 1017.8
20260504015728 15 288 1.6 3.2 0.00 0.00 0.00 43 1017.7
20260504015224 15 245 3.2 3.2 0.00 0.00 0.00 43 1017.5
20260504014720 15 194 1.6 4.8 0.00 0.00 0.00 43 1017.2
20260504014217 15 233 4.8 6.4 0.00 0.00 0.00 43 1017.2
20260504013715 15 189 4.8 6.4 0.00 0.00 0.00 43 1017.1
20260504013212 15 187 4.8 6.4 0.00 0.00 0.00 43 1016.9
20260504012708 15 210 3.2 3.2 0.00 0.00 0.00 43 1017.2
20260504012206 16 206 1.6 3.2 0.00 0.00 0.00 44 1017.0
20260504011703 16 222 3.2 4.8 0.00 0.00 0.00 42 1017.0
20260504011159 16 242 4.8 6.4 0.00 0.00 0.00 42 1016.8
20260504010655 16 183 3.2 11.3 0.00 0.00 0.00 42 1016.9
20260504010151 16 193 1.6 3.2 0.00 0.00 0.00 42 1017.0
20260504005648 16 183 3.2 4.8 0.00 0.00 0.00 41 1016.8
20260504005145 16 170 1.6 1.6 0.00 0.00 0.00 42 1016.8
20260504004643 16 215 1.6 4.8 0.00 0.00 0.00 42 1016.8
20260504004140 16 193 1.6 6.4 0.00 0.00 0.00 41 1016.6
20260504003636 17 225 4.8 6.4 0.00 0.00 0.00 41 1016.6
20260504003133 17 163 3.2 6.4 0.00 0.00 0.00 40 1016.8
20260504002630 17 208 3.2 9.7 0.00 0.00 0.00 39 1016.5
20260504002127 17 177 1.6 6.4 0.00 0.00 0.00 38 1016.7
20260504001625 17 176 4.8 6.4 0.00 0.00 0.00 38 1016.2
20260504001121 17 184 1.6 6.4 0.00 0.00 0.00 38 1016.3
20260504000619 18 229 4.8 6.4 0.00 0.00 0.00 38 1016.3
20260504000116 18 193 3.2 6.4 0.00 0.00 0.00 37 1016.2
20260503235614 18 233 3.2 6.4 0.00 0.00 0.00 36 1016.0
20260503235110 18 233 4.8 6.4 0.00 0.00 0.00 36 1016.1
20260503234608 19 173 1.6 6.4 0.00 0.00 0.00 36 1016.1
20260503234106 19 184 1.6 4.8 0.00 0.00 0.00 34 1016.2
20260503233603 20 239 9.7 12.9 0.00 0.00 0.00 33 1016.1
20260503233058 20 236 4.8 11.3 0.00 0.00 0.00 34 1016.1
20260503232555 20 204 3.2 9.7 0.00 0.00 0.00 33 1016.1
20260503232053 20 214 6.4 6.4 0.00 0.00 0.00 33 1016.2
20260503231551 20 181 3.2 6.4 0.00 0.00 0.00 33 1016.2
20260503231047 20 242 9.7 14.5 0.00 0.00 0.00 33 1016.2
20260503230544 20 189 4.8 9.7 0.00 0.00 0.00 33 1016.3
20260503230041 20 160 6.4 11.3 0.00 0.00 0.00 33 1016.2
20260503225538 20 197 3.2 9.7 0.00 0.00 0.00 33 1016.3
20260503225033 21 223 6.4 9.7 0.00 0.00 0.00 33 1016.2
20260503224531 21 178 3.2 6.4 0.00 0.00 0.00 33 1016.3
20260503224028 21 267 9.7 11.3 0.00 0.00 0.00 32 1016.2
20260503223526 21 170 1.6 12.9 0.00 0.00 0.00 33 1016.2
20260503223021 21 229 4.8 12.9 0.00 0.00 0.00 33 1016.2
20260503222520 21 245 12.9 16.1 0.00 0.00 0.00 32 1016.3
20260503222018 21 167 4.8 6.4 0.00 0.00 0.00 33 1016.3
20260503221515 21 250 11.3 14.5 0.00 0.00 0.00 31 1016.2
20260503221013 21 228 6.4 9.7 0.00 0.00 0.00 32 1016.3
20260503220508 21 183 6.4 9.7 0.00 0.00 0.00 32 1016.3
20260503220005 21 215 8.0 12.9 0.00 0.00 0.00 31 1016.3
20260503215503 21 211 1.6 9.7 0.00 0.00 0.00 28 1016.7
20260503215000 21 221 4.8 6.4 0.00 0.00 0.00 30 1016.6
20260503214458 21 177 8.0 11.3 0.00 0.00 0.00 30 1016.6
20260503213955 21 224 8.0 11.3 0.00 0.00 0.00 29 1016.7
20260503213453 21 229 3.2 12.9 0.00 0.00 0.00 28 1016.6
20260503212949 21 219 8.0 14.5 0.00 0.00 0.00 28 1016.6
20260503212446 21 170 0.0 6.4 0.00 0.00 0.00 28 1016.6
20260503211943 21 250 14.5 16.1 0.00 0.00 0.00 25 1016.7
20260503211441 21 196 4.8 6.4 0.00 0.00 0.00 25 1016.7
20260503210936 21 202 9.7 11.3 0.00 0.00 0.00 26 1016.7
20260503210433 21 232 9.7 12.9 0.00 0.00 0.00 26 1017.0
20260503205928 21 270 3.2 9.7 0.00 0.00 0.00 26 1016.9
20260503205425 21 216 6.4 11.3 0.00 0.00 0.00 27 1016.9
20260503204921 22 280 8.0 12.9 0.00 0.00 0.00 27 1016.9
20260503204419 21 245 8.0 11.3 0.00 0.00 0.00 28 1017.1
20260503203916 21 204 3.2 6.4 0.00 0.00 0.00 27 1017.1
20260503203413 21 291 9.7 17.7 0.00 0.00 0.00 28 1017.2
20260503202910 21 214 6.4 11.3 0.00 0.00 0.00 28 1017.3
20260503202408 21 218 3.2 9.7 0.00 0.00 0.00 28 1017.4
20260503201906 21 231 4.8 6.4 0.00 0.00 0.00 28 1017.5
20260503201403 21 226 8.0 14.5 0.00 0.00 0.00 28 1017.5
20260503200901 21 223 8.0 16.1 0.00 0.00 0.00 30 1017.7
20260503200356 20 208 8.0 17.7 0.00 0.00 0.00 31 1017.9
20260503195854 20 229 6.4 6.4 0.00 0.00 0.00 30 1017.8
20260503195350 21 230 8.0 9.7 0.00 0.00 0.00 30 1017.9
20260503194847 20 306 6.4 14.5 0.00 0.00 0.00 31 1018.2
20260503194343 21 289 8.0 16.1 0.00 0.00 0.00 31 1018.0
20260503193840 21 176 4.8 6.4 0.00 0.00 0.00 30 1018.2
20260503193335 20 230 4.8 9.7 0.00 0.00 0.00 33 1018.1
20260503192831 20 243 6.4 11.3 0.00 0.00 0.00 33 1018.3
20260503192327 20 217 3.2 4.8 0.00 0.00 0.00 32 1018.5
20260503191824 20 243 3.2 11.3 0.00 0.00 0.00 29 1018.6
20260503191321 20 155 4.8 11.3 0.00 0.00 0.00 31 1018.7
20260503190817 20 212 6.4 9.7 0.00 0.00 0.00 34 1018.8
20260503190314 20 185 9.7 14.5 0.00 0.00 0.00 33 1018.8
20260503185811 20 165 6.4 17.7 0.00 0.00 0.00 34 1019.0
20260503185308 20 112 6.4 11.3 0.00 0.00 0.00 32 1018.9
20260503184807 20 227 6.4 9.7 0.00 0.00 0.00 32 1018.8
20260503184304 19 130 3.2 4.8 0.00 0.00 0.00 35 1019.1
20260503183800 19 168 8.0 11.3 0.00 0.00 0.00 36 1019.0
20260503183257 19 194 6.4 11.3 0.00 0.00 0.00 35 1019.2
20260503182755 19 139 3.2 9.7 0.00 0.00 0.00 35 1019.1
20260503182254 20 111 3.2 9.7 0.00 0.00 0.00 35 1019.1
20260503181750 20 192 9.7 11.3 0.00 0.00 0.00 34 1019.4
20260503181247 19 194 3.2 14.5 0.00 0.00 0.00 38 1019.5
20260503180743 19 59 3.2 6.4 0.00 0.00 0.00 36 1019.1
20260503180242 19 178 6.4 12.9 0.00 0.00 0.00 38 1019.4
20260503175738 19 168 6.4 9.7 0.00 0.00 0.00 33 1019.3
20260503175236 18 184 8.0 12.9 0.00 0.00 0.00 34 1019.6
20260503174732 18 149 3.2 4.8 0.00 0.00 0.00 36 1019.5
20260503174230 18 141 3.2 11.3 0.00 0.00 0.00 37 1019.6
20260503173730 18 124 8.0 9.7 0.00 0.00 0.00 35 1019.6
20260503173226 18 177 6.4 6.4 0.00 0.00 0.00 38 1019.6
20260503172724 18 91 4.8 6.4 0.00 0.00 0.00 37 1019.7
20260503172221 18 143 9.7 12.9 0.00 0.00 0.00 36 1019.7
20260503171717 18 150 0.0 4.8 0.00 0.00 0.00 38 1019.8
20260503171214 18 234 9.7 16.1 0.00 0.00 0.00 35 1019.8
20260503170711 18 213 11.3 12.9 0.00 0.00 0.00 37 1019.9
20260503170208 18 148 3.2 6.4 0.00 0.00 0.00 39 1020.0
20260503160130 16 154 0.0 3.2 0.00 0.00 0.00 43 1020.9
20260503150600 15 139 0.0 3.2 0.00 0.00 0.00 46 1021.2
20260503130949 11 104 1.6 1.6 0.00 0.00 0.00 69 1020.8
20260503130447 10 139 0.0 1.6 0.00 0.00 0.00 70 1020.9
20260503110344 3 171 0.0 0.0 0.00 0.00 0.00 97 1019.7
20260503090235 3 172 0.0 0.0 0.00 0.00 0.00 96 1018.6
20260503081202 3 172 0.0 0.0 0.00 0.00 0.00 95 1018.4
20260503080658 4 172 0.0 0.0 0.00 0.00 0.00 95 1018.4